www.pogodaiklimat.ru

Погода и климат >> Архив погоды >> Доминиканская Республика >> Санто-Доминго


АРХИВ ПОГОДЫ в Санто-Доминго

Время (UTC), дата Ветер
(напр.,м/с)
 
Видим.   Явления Облачность Т
(С)
Тd
(С)
f
(%)
Тe
(С)
Тes
(С)
Комфортность P
(гПа)
Po
(гПа)
Тmin
(С)
Tmax
(С)
R
(мм)
R24
(мм)
S
(см)
21 16.09 В 4 16 км гроза без осадков 9/8 540 м
[Cb cap Cs]
+30.4 +24.9 72 +43 +44 опасность
перегрева
1012.1 1010.5
00 17.09 штиль 0 16 км зарница {гроза} 6/5 540 м
[Cb cap Cs]
+28.6 +23.5 74 +39 +39 очень
душно
1013.0 1011.4 +27.0 +35.4
03 17.09 СВ 2 16 км {гроза} 4/4 600 м
[Cu med, cong]
+28.4 +23.6 75 +39 +39 очень
душно
1014.2 1012.6
06 17.09 С 2 16 км 5/5 600 м
[Cu med, cong]
+27.6 +24.1 81 +38 +38 очень
душно
1013.2 1011.6 +27.0 +35.4
09 17.09 штиль 0 16 км 4/4 540 м
[Cu med, cong]
+26.4 +24.5 89 +37 +37 очень
душно
1011.8 1010.2
12 17.09 С 2 16 км 5/5 540 м
[Cb cap Ci]
+27.4 +24.4 84 +39 +40 очень
душно
1013.0 1011.4 +27.2 +35.4
15 17.09 В 2 16 км 9/6 600 м
[Cb cap As op Cs]
+31.0 +24.4 68 +43 +47 опасность
перегрева
1013.9 1012.3
18 17.09 Ю 4 16 км {гроза} 9/6 600 м
[Cb cap Cs]
+33.2 +25.0 62 +47 +51 опасность
перегрева
1011.8 1010.2 +27.2 +34.8
21 17.09 Ю 3 16 км гроза без осадков 9/8 540 м
[Cb cap Cs]
+31.4 +25.9 73 +47 +47 опасность
перегрева
1011.1 1009.5
00 18.09 Ю 2 16 км {гроза} 5/3 600 м
[Cu med, cong Cs]
+29.8 +23.3 68 +40 +40 очень
душно
1011.6 1010.0 +27.2 +34.8
03 18.09 СЗ 2 16 км 8/6 540 м
[Sc Cs]
+27.0 +23.7 82 +37 +37 очень
душно
1012.7 1011.1
06 18.09 штиль 0 12 км гроза, ливневой дождь 8/6 480 м
[Cb cap Cs]
+25.0 +23.1 89 +33 +33 очень
душно
1011.7 1010.1 +27.2 +34.8 0.0
09 18.09 штиль 0 16 км {гроза, дождь} 6/4 480 м
[Sc Ci fib]
+25.2 +23.0 88 +34 +34 очень
душно
1010.8 1009.2 0.0
12 18.09 Ю 2 16 км {гроза, дождь} 9/6 480 м
[Cb cap As op Cs]
+27.2 +24.4 85 +38 +39 очень
душно
1011.1 1009.5 +25.0 +34.8
15 18.09 ЮЗ 2 16 км 8/5 600 м
[Cb cap As op Cs]
+31.3 +24.7 68 +44 +50 опасность
перегрева
1011.5 1009.9
18 18.09 штиль 0 8000 м гроза, ливневой дождь 9/8 480 м
[Cb cap As op]
+26.1 +24.6 91 +37 +40 очень
душно
1010.6 1009.0 +25.0 +33.0 0.2
21 18.09 штиль 0 16 км гроза без осадков 9/8 480 м
[Cb cap As op Cs]
+27.0 +25.9 94 +40 +41 очень
душно
1009.6 1008.0 2
00 19.09 СЗ 2 16 км в посл. час гроза {дождь} 9/8 480 м
[Cb cap Ac As Cs]
+26.0 +23.8 88 +36 +36 очень
душно
1009.6 1008.0 +25.0 +33.0 0.7
03 19.09 СЗ 2 16 км {дождь} 9/8 420 м
[Cb cap Ac As Cs]
+25.0 +24.4 96 +35 +35 очень
душно
1010.6 1009.0 2
06 19.09 З 2 16 км в посл. час дождь 9/8 300 м
[Cu med, cong Ac cast]
+33.0 +24.8 62 +44 +44 опасность
перегрева
1009.6 1008.0 0.0
09 19.09 штиль 0 16 км 8/8 300 м
[Cu med, cong Ac cast]
+24.8 +23.7 94 +34 +34 очень
душно
1008.0 1006.4
12 19.09 СВ 2 16 км {дождь} 9/4 480 м
[Cb cap Ac trans Cs]
+25.2 +23.1 88 +34 +34 очень
душно
1009.1 1007.5 +24.8 +33.0
15 19.09 ЮВ 3 16 км слаб. дождь 9/6 540 м
[Cb cap As op Cs]
+27.5 +24.1 82 +38 +42 очень
душно
1010.4 1008.8 0.0
18 19.09 ЮВ 5 8000 м слаб. дождь 10/9 450 м
[Cb cap As op]
+26.8 +23.8 84 +37 +37 очень
душно
1009.6 1008.0 +24.8 +28.8 1
21 19.09 С 3 8000 м гроза, ливневой дождь 10/9 450 м
[Cb cap As op]
+24.3 +23.1 93 +32 +32 очень
душно
1009.0 1007.4 28
00 20.09 ЮВ 2 8000 м гроза, ливневой дождь 10/9 420 м
[Cb cap As op]
+24.6 +24.3 98 +34 +34 очень
душно
1009.7 1008.1 +24.4 +28.8 8
03 20.09 З 2 8000 м слаб. дождь {гроза} 10/8 420 м
[Cb cap As op]
+24.4 +24.1 98 +34 +34 очень
душно
1011.1 1009.5 6
06 20.09 З 2 16 км {гроза, дождь} 10/6 420 м
[Cb cap As op]
+24.6 +24.0 96 +34 +34 очень
душно
1010.6 1009.0 +24.4 +28.8 0.2
09 20.09 штиль 0 16 км 8/5 420 м
[Cb cap Cs]
+24.4 +23.8 96 +33 +33 очень
душно
1009.6 1008.0
12 20.09 З 1 16 км в посл. час дождь 9/8 480 м
[Cb cap As op Cs]
+24.8 +23.8 94 +34 +34 очень
душно
1011.1 1009.5 +24.2 +28.8 0.1
15 20.09 Ю 2 16 км {дождь} 9/6 540 м
[Cb cap As op Cs]
+28.5 +26.5 89 +44 +48 опасность
перегрева
1012.1 1010.5 0.6
18 20.09 Ю 3 14 км гроза, ливневой дождь 9/8 450 м
[Cb cap As op Ci]
+29.1 +25.3 80 +42 +45 опасность
перегрева
1011.5 1009.9 +24.2 +30.3 2
21 20.09 Ю 2 16 км гроза без осадков 9/8 480 м
[Cb cap As op Cs]
+28.0 +25.3 85 +41 +41 опасность
перегрева
1010.6 1009.0 1
00 21.09 Ю 2 16 км {гроза, дождь} 8/5 540 м
[Cu med, cong Ac As]
+27.6 +25.5 88 +40 +40 очень
душно
1011.8 1010.2 +24.2 +30.3
03 21.09 штиль 0 16 км 6/6 540 м
[Sc Ac trans]
+27.4 +25.5 89 +40 +40 очень
душно
1013.0 1011.4
06 21.09 штиль 0 16 км 4/3 500 м
[Cu med, cong Ci fib]
+26.0 +24.6 92 +37 +37 очень
душно
1012.0 1010.4 +24.2 +30.3
09 21.09 С 2 16 км 3/3 480 м
[Cu med, cong]
+25.4 +24.0 92 +35 +35 очень
душно
1011.2 1009.6
12 21.09 СЗ 2 16 км 6/3 500 м
[Cb cap Ac trans Ci]
+25.7 +24.6 94 +36 +37 очень
душно
1012.9 1011.3 +25.6 +30.3
15 21.09 ЮЗ 2 16 км 8/4 540 м
[Cb cap Ac trans Cs]
+30.2 +26.0 78 +45 +52 опасность
перегрева
1014.1 1012.5
18 21.09 ЮЗ 2 16 км 9/6 540 м
[Cb cap Ac trans Cs]
+31.9 +25.5 69 +46 +51 опасность
перегрева
1012.6 1011.0 +25.6 +33.1
00 22.09 ЮЗ 3 16 км 8/4 660 м
[Cu med, cong Ac trans Cs]
+28.6 +23.8 75 +39 +39 очень
душно
1012.2 1010.6 +25.0 +33.1
03 22.09 ЮЗ 3 16 км 9/8 540 м
[Cb cap Cs]
+28.4 +24.7 80 +40 +40 очень
душно
1014.0 1012.4
06 22.09 ЮЗ 2 16 км 8/5 540 м
[Cu med, cong Cs]
+28.0 +25.3 85 +41 +41 опасность
перегрева
1013.0 1011.4 +25.0 +33.1
09 22.09 З 2 16 км 8/6 540 м
[Cu med, cong Cs]
+27.4 +25.5 89 +40 +40 очень
душно
1012.0 1010.4
12 22.09 штиль 0 16 км 3/3 540 м
[Cu med, cong Ci fib]
+26.2 +25.0 93 +37 +40 очень
душно
1012.6 1011.0 +26.1 +33.1
15 22.09 Ю 3 16 км 4/4 600 м
[Cb cap Ac trans Ci fib]
+31.0 +26.7 78 +48 +56 опасность
перегрева
1014.6 1013.0
18 22.09 Ю 3 16 км 6/5 600 м
[Cb cap Ci fib]
+32.2 +26.4 72 +49 +56 опасность
перегрева
1012.1 1010.5 +34.1
21 22.09 Ю 3 16 км 6/4 600 м
[Cu Sc Ci fib]
+30.1 +26.2 80 +46 +47 опасность
перегрева
1011.6 1010.0
03 23.09 Ю 2 16 км 4/3 540 м
[Cu med, cong]
+28.2 +25.3 84 +41 +41 опасность
перегрева
1013.2 1011.6
06 23.09 З 2 16 км 3/3 480 м
[Cu med, cong Ci fib]
+26.8 +24.6 88 +38 +38 очень
душно
1012.1 1010.5 +26.1 +33.6
09 23.09 СЗ 2 16 км зарница {гроза} 4/3 480 м
[Cb cap Ci fib]
+26.0 +24.4 91 +36 +36 очень
душно
1011.3 1009.7
12 23.09 С 2 16 км {гроза, дождь} 8/6 300 м
[Cb cap As op Ci fib]
+27.2 +24.2 84 +38 +39 очень
душно
1011.8 1010.2 +26.5 +35.6 0.0

 

Местоположение метеостанции Санто-Доминго (Доминиканская Республика): широта 18.43 долгота -69.88 высота над уровнем моря 14 м.

В архиве по умолчанию представлена погода в Санто-Доминго за последнюю неделю. Архивные данные за месяц целиком и за предыдущие месяцы, начиная с января 2011 года, Вы можете получить, выбрав интересующий диапазон дат из раскрывающегося списка и нажав кнопку "Ввод!".


*Определитесь, кто Вы:
робот инопланетянин человек

Внимание! Время в таблицах - всемирное. Для получения местного времени необходимо прибавить поправку, которая равна -4 ч.

Смотрите также архив погоды в соседних городах и на ближайших метеорологических станциях:

Погода в Лас Америкас (Доминиканская Республика) (23 км)
Погода в Сабана де ла Мар (Доминиканская Республика) (87 км)
Погода в Ла Романа аэропорту (Доминиканская Республика) (101 км)
Погода в Бараоне (Доминиканская Республика) (131 км)
Погода в Сантьяго (Доминиканская Республика) (143 км)
Погода в Пунта-Кане (Доминиканская Республика) (161 км)
Погода в Пуэрто-Плате (Доминиканская Республика) (163 км)
Погода в Пунта-де-Маиси (Куба) (492 км)
Погода в Шарлотта-Амалии (Виргинские Острова) (519 км)
Погода в Сантьяго-де-Кубе (Куба) (650 км)

Пояснения к столбцам:

Ветер - указаны скорость ветра в м/с - средняя за 10 мин, порывы в срок и между сроками (в фигурных скобках) и направление, откуда дует ветер: С - северный, СВ - северо-восточный, В - восточный, ЮВ - юго-восточный, Ю - южный, ЮЗ - юго-западный, З - западный, СЗ - северо-западный.
Видимость - горизонтальная дальность видимости в метрах или километрах. При видимости от 1 до 10 км при отсутствии осадков обычно наблюдается дымка, при ухудшении видимости до 1 км и менее - туман. В сухую погоду видимость может ухудшаться дымом, пылью или мглою.
Явления - указаны атмосферные явления, наблюдавшиеся в срок или в последний час перед сроком; фигурными скобками обозначены явления, наблюдавшиеся между сроками (за 1-3 часа до срока); квадратными скобками обозначены град или гололедные отложения с указанием их диаметра в мм.
Облачность - указаны через наклонную черту общая и нижняя облачность в баллах и высота нижней границы облаков в метрах; квадратными скобками обозначены формы облаков: Ci - перистые, Cs - перисто-слоистые, Cc - перисто-кучевые, Ac - высококучевые, As - высокослоистые, Sc - слоисто-кучевые, Ns - слоисто-дождевые, Cu - кучевые, Cb - кучево-дождевые. Подробнее классификацию облаков см. в Атласе облаков (PDF).
T - Температура воздуха - температура, измеренная на высоте 2 м над землей.
Td - Температура точки росы - температура, при понижении до которой содержащийся в воздухе водяной пар достигнет насыщения.
f - Относительная влажность воздуха - влажноcть воздуха, измеренная на высоте 2 м над землей.
Te - Эффективная температура - температура, которую ощущает одетый по сезону человек в тени. Характеристика душности погоды. При расчете учитывается влияние влажности воздуха и скорости ветра на теплоощущения человека.
Tes - Эффективная температура на солнце - температура, которую ощущает человек, с поправкой на солнечный нагрев. Характеристика знойности погоды. Зависит от высоты солнца над горизонтом, облачности и скорости ветра. Ночью, в пасмурную погоду, а также при ветре 12 м/с и более поправка равна нулю.
P - Атмосферное давление - приведенное к уровню моря атмосферное давление.
Po - Атмосферное давление - измеренное на уровне метеостанции атмосферное давление.
Tmin - Минимальная температура - минимум температуры воздуха на высоте 2 м над землей.
Tmax - Максимальная температура - максимум температуры воздуха на высоте 2 м над землей.
R - Количество осадков - Количество выпавших осадков за период времени, мм. При наведении курсора мыши на число - период времени, за который выпало указанное количество осадков.
R24 - Количество осадков - Количество выпавших осадков за 24 часа, мм.
S - Снежный покров - Высота снежного покрова, см. При наведении курсора мыши на число - состояние снежного покрова и степень покрытия местности в баллах.